Location: Altoona
(40.5167°N, 78.4000°W)
Time: 17:45:21
(UTC-05:00)

Daily predictions for brighter satellites

Satellite Brightness Start Highest point End
(mag) Time Altitude Azimuth Time Altitude Azimuth Time Altitude Azimuth
NOSS 8 (E) 4.5 18:26:26 10° SSW 18:29:52 78° SE 18:33:36 10° NE
FENGYUN 3A 4.4 18:26:08 10° SE 18:30:48 30° ENE 18:35:29 10° N
ATLAS CENTAUR R/B 3.5 18:31:28 10° S 18:33:57 14° SE 18:35:41 10° ESE
GPS 2-04 Rocket1 3.8 18:31:36 10° SW 18:35:29 36° S 18:39:28 10° ESE
Cosmos 2322 Rocket 4.1 18:30:43 10° NW 18:35:45 34° WSW 18:40:45 10° SSW
Meteor 1-28 Rocket 3.3 18:32:10 10° N 18:35:59 84° WNW 18:39:48 10° SSW
Cosmos 1570 Rocket 4.3 18:31:07 10° N 18:36:09 46° ENE 18:41:10 10° SE
Cosmos 2181 Rocket 4.0 18:30:14 10° N 18:36:30 65° E 18:42:47 10° SSE
Cosmos 1633 2.5 18:34:49 10° S 18:38:30 81° E 18:42:12 10° N
USA 229 DEB 4.2 18:32:27 10° NNW 18:39:13 44° NE 18:46:04 10° ESE
USA 229 4.2 18:32:33 10° NNW 18:39:18 44° NE 18:46:10 10° ESE
Genesis I 3.2 18:36:05 10° NNW 18:40:00 63° NE 18:43:53 10° SE
Cosmos 1238 Rocket 2.0 18:37:42 10° N 18:40:38 63° E 18:43:41 10° SSE
Okean 1 Rocket 3.2 18:37:03 10° S 18:41:25 53° E 18:45:47 10° NNE
Cosmos 1709 Rocket 4.0 18:37:19 10° S 18:43:33 89° W 18:49:44 10° N
Cosmos 2074 Rocket 4.4 18:39:22 10° SSE 18:45:07 40° E 18:50:54 10° NNE
NOSS 8 (H) 4.3 18:41:49 10° SSW 18:45:11 81° SE 18:48:46 10° NE
METEOR-M 4.1 18:40:08 10° SSE 18:45:27 75° ENE 18:50:48 10° N
Cosmos 1025 Rocket 3.7 18:44:20 10° N 18:48:22 34° ENE 18:52:21 10° SE
OTV 4 2.4 18:47:42 10° SSW 18:49:45 17° SSE 18:51:22 12° ESE
Spot 2 Rocket 4.1 18:46:07 10° SE 18:50:36 33° ENE 18:55:08 10° N
Cosmos 2184 Rocket 4.3 18:45:35 10° SSE 18:51:28 43° E 18:57:19 10° NNE
FengYun 1-2 T 4.4 18:50:26 10° SE 18:55:40 49° ENE 19:00:58 10° N
Cosmos 2322 4.1 18:51:51 10° NNW 18:57:34 71° WSW 19:03:13 10° SSE
Hubble Space Telescope 3.1 18:59:14 10° SSW 19:01:08 13° S 19:03:03 10° SE
BREEZE-M DEB (TANK) 2.5 18:59:33 10° SW 19:03:57 58° SSE 19:05:20 23° ENE
Cosmos 1850 Rocket 4.1 19:00:37 10° SSW 19:05:55 85° WNW 19:11:19 10° NNE
Cosmos 2208 Rocket 4.0 19:01:46 10° NNW 19:07:15 81° ENE 19:12:38 10° SSE
Envisat 4.5 19:06:50 16° ENE 19:07:23 17° ENE 19:10:30 10° NNE
CZ-3C R/B 3.9 19:05:44 10° SW 19:07:43 11° SSW 19:09:15 10° SSW
SJ-6B 2.9 19:04:57 10° S 19:08:56 81° W 19:12:51 10° NNW
Cosmos 1544 Rocket 4.4 19:05:25 10° SE 19:08:59 26° E 19:12:35 10° NNE
NOSS 0 Rocket 4.4 19:04:58 10° NNW 19:10:43 39° ENE 19:15:08 16° ESE
Cosmos 405 Rocket 3.6 19:07:33 10° NNE 19:11:11 30° ENE 19:13:12 20° ESE
Cosmos 2237 Rocket 3.1 19:07:11 10° N 19:12:06 28° NE 19:14:36 21° E
ALOS 2.2 19:07:54 10° SSE 19:12:33 73° ENE 19:17:13 10° N
HJ-1C 3.2 19:10:25 10° SSE 19:13:46 72° ENE 19:17:08 10° N
Cosmos 2297 Rocket 3.3 19:09:56 10° SSE 19:14:01 21° E 19:14:23 21° E
Cosmos 2333 4.2 19:08:49 10° NNW 19:14:34 74° ENE 19:20:20 10° SSE
H-2A R/B 2.9 19:12:06 10° SSE 19:15:39 47° ENE 19:19:17 10° N
Cosmos 2237 4.4 19:10:31 10° NNW 19:16:15 75° WSW 19:21:55 10° SSE
CZ-2D R/B 3.8 19:14:14 19° SE 19:16:24 35° ENE 19:19:55 10° N
COSMOS 2428 2.7 19:10:42 10° NNW 19:16:25 87° ENE 19:22:07 10° SSE
Okean 1-7 Rocket 3.7 19:14:39 10° N 19:19:11 81° W 19:23:38 10° S
Cosmos 2154 Rocket 4.4 19:15:10 10° SSE 19:20:58 39° E 19:26:45 10° NNE
Meteor 2-4 Rocket 3.8 19:16:23 10° NNW 19:21:54 77° W 19:27:15 10° S
Gbstr 26 Del rocket 4.1 19:19:35 10° W 19:23:04 32° NNW 19:25:40 15° NNE
Cosmos 2285 Rocket 4.0 19:16:51 10° NNW 19:23:17 70° ENE 19:29:39 10° SSE
Cosmos 2360 Rocket 3.8 19:19:25 10° NW 19:24:33 36° WSW 19:29:39 10° S
Cosmos 2219 Rocket 2.2 19:19:04 10° NNW 19:24:36 57° ENE 19:28:57 16° SE
Meteor 1-23 Rocket 4.3 19:21:50 10° N 19:27:40 86° W 19:33:23 10° S
Okean 2 3.3 19:24:39 10° N 19:28:49 65° E 19:32:57 10° SSE
Cosmos 2219 3.7 19:26:36 10° SW 19:32:17 63° WNW 19:38:00 10° NNE
Atlas Centaur 2 4.1 19:29:35 10° SSW 19:34:02 17° SSE 19:35:47 16° SE
Cosmos 2227 Rocket 2.5 19:28:58 10° S 19:34:14 42° ESE 19:38:28 15° NE
Helios 1A 3.2 19:33:28 37° ESE 19:34:36 47° ENE 19:38:36 10° N
Helios 1B rocket 2.7 19:31:33 10° NNE 19:35:32 44° E 19:39:30 10° S
Abrixas rocket 3.1 19:32:59 10° W 19:36:13 43° NNW 19:37:11 33° NNE
Cosmos 1536 4.4 19:35:55 10° SW 19:39:36 36° WNW 19:43:18 10° N
SAR-Lupe-1 4.1 19:44:47 58° NE 19:44:47 58° NE 19:48:00 10° N
SAR-Lupe-4 3.4 19:44:54 66° SE 19:45:17 77° ENE 19:48:53 10° N
Cosmos 1455 Rocket 3.0 19:42:04 10° S 19:46:21 55° E 19:50:37 10° NNE
Cosmos 841 Rocket 4.3 19:42:21 10° N 19:46:24 31° NE 19:46:24 31° NE
SL-16 R/B 3.4 19:43:15 10° N 19:47:23 24° NE 19:47:23 24° NE
Cosmos 1763 Rocket 3.7 19:52:43 10° N 19:57:29 48° ENE 19:57:29 48° ENE
Resurs 01 Rocket 2.6 19:55:06 10° S 19:59:19 46° W 20:03:34 10° NNW
Cosmos 2333 Rocket 2.3 20:04:48 10° NNW 20:10:34 76° WSW 20:12:59 36° S
Cosmos 1980 3.6 20:05:55 10° NNW 20:11:36 88° ENE 20:12:49 57° SSE
GEOS 3 Rocket 3.9 20:08:20 21° NNE 20:11:50 69° NW 20:17:04 10° SW
GPS 2-04 Rocket1 3.9 20:10:57 10° WSW 20:14:12 38° SW 20:14:12 38° SW
OTV 4 3.8 20:22:35 10° WSW 20:22:38 10° WSW 20:22:38 10° WSW
Cosmos 1295 Rocket 4.3 20:33:35 84° SE 20:33:45 86° E 20:40:05 10° N
Cosmos 2082 3.9 20:30:46 10° SSW 20:36:28 69° WNW 20:37:59 48° N
NOSS 3-1 (A) 3.9 20:35:32 10° NNW 20:43:15 84° ENE 20:44:06 74° SE
Envisat 3.8 20:47:02 48° NW 20:47:02 48° NW 20:50:55 10° NNW
ATLAS 2AS CENTAUR R/B 3.9 20:41:34 10° NNW 20:48:06 34° NNE 20:48:06 34° NNE
Cosmos 2237 Rocket 3.1 20:50:57 10° NW 20:56:18 43° WSW 20:56:29 42° WSW
Cosmos 2297 Rocket 3.1 20:52:06 10° SW 20:56:25 45° WSW 20:56:25 45° WSW
NOSS 3-1 (C) 4.3 20:53:25 10° NW 21:01:01 63° WSW 21:02:16 57° SSW
Cosmos 2219 Rocket 4.5 21:04:11 10° WNW 21:08:01 19° W 21:10:47 14° SW
H-2A R/B 4.5 21:03:58 10° SW 21:42:30 16° E 22:09:55 10° E
H-2A R/B 4.5 21:03:58 10° SW 21:42:32 16° E 22:09:56 10° E
H-2A R/B 4.5 21:03:58 10° SW 21:42:31 16° E 22:09:55 10° E
H-2A R/B 4.5 21:03:58 10° SW 21:42:32 16° E 22:09:55 10° E
Cosmos 2227 Rocket 3.9 21:13:32 10° WSW 21:18:23 29° NW 21:20:36 22° NNW
SL-16 R/B 4.1 21:26:46 10° NNW 21:29:17 26° NW 21:29:17 26° NW
